Temp
13 13 13 13 13 13 13 13 13 13 13 12 12 12 12 12 12 12 11 10 10 10 10 9 9 9 9 8 8 8 9 9 9 9 10 9 9 8 8 8 8 8 8 9
13 14 14 14 14 13 13 13 13 13 13 12 12 13 13 13 13 13 12 12 11 10 10 9 9 9 9 8 8 8 8 8 8 8 9 9 9 9 8 8 8 9 9 9
13 13 14 14 14 13 14 14 14 13 13 13 13 14 14 14 13 13 13 12 11 11 10 10 9 9 9 9 8 8 8 8 8 8 8 9 9 9 8 9 8 8 8 8
13 14 14 14 15 14 13 14 14 13 12 12 13 13 14 15 15 14 13 13 12 11 11 10 10 10 10 9 9 8 8 8 8 8 8 9 9 9 8 8 8 8 8 8
13 13 13 14 14 15 14 14 14 13 12 12 12 12 14 15 15 15 14 13 13 12 11 11 11 10 10 9 9 9 9 9 8 8 8 9 9 9 8 8 8 8 8 8
13 14 13 14 14 14 15 14 14 13 12 12 13 12 15 16 16 16 15 14 14 13 12 11 11 10 10 9 10 10 10 9 9 9 9 9 9 8 8 8 8 8 8 8
14 14 14 14 14 14 14 14 14 13 13 15 12 11 15 16 16 16 16 16 15 14 13 12 12 11 11 10 10 10 10 10 9 9 9 9 9 8 8 8 7 7 7 7
14 15 15 15 15 15 15 15 15 15 15 16 13 13 16 16 16 16 17 16 15 14 14 13 12 12 11 11 10 10 9 9 8 9 9 8 8 8 8 8 7 7 7 7
14 14 15 15 15 15 14 13 14 14 13 13 14 15 16 16 16 17 16 16 16 15 14 14 13 12 12 11 10 10 9 8 8 8 8 8 8 8 7 7 7 7 7 7
14 14 15 15 14 15 14 15 14 13 15 14 15 13 16 16 16 16 16 16 16 15 15 14 13 12 12 11 11 10 10 9 8 8 8 7 8 7 8 7 6 6 6 6
14 14 15 15 15 15 15 14 14 14 13 16 17 16 16 16 16 16 16 16 15 15 14 14 13 12 11 11 10 8 9 8 8 5 6 6 4 5 7 7 6 6 6 6
14 13 14 14 14 15 15 14 15 14 14 13 14 15 16 16 16 16 16 16 15 14 14 13 12 12 11 11 10 10 8 8 8 6 7 6 4 6 6 7 6 6 6 6
13 13 14 15 15 15 15 15 15 15 15 14 16 16 16 16 16 16 16 15 14 14 12 12 12 11 10 11 10 9 8 7 7 7 7 6 6 6 6 6 6 6 6 6
12 12 13 14 15 14 14 14 14 14 14 15 14 15 15 15 15 16 14 12 11 11 11 10 10 10 10 9 9 9 8 7 7 7 7 6 6 6 6 5 5 5 5 5
11 11 12 13 13 14 14 14 14 14 14 14 15 14 15 15 15 14 12 11 11 10 9 9 9 8 8 8 8 7 8 8 6 6 6 5 5 5 5 5 5 4 4 4
11 11 11 12 12 12 13 13 13 13 14 14 14 14 14 14 13 12 11 10 9 9 9 9 9 9 8 8 8 7 6 5 6 5 5 5 5 5 5 4 4 4 4 5
10 11 11 11 11 11 11 12 13 13 13 13 13 13 13 13 11 10 10 10 9 8 8 8 8 8 7 7 6 6 5 5 5 5 5 4 4 4 4 4 4 4 4 4
10 11 11 11 11 11 11 12 12 12 12 12 12 12 11 11 10 10 10 9 8 8 8 7 7 7 7 6 6 5 5 4 4 4 4 4 4 4 4 4 4 4 3 3
10 10 10 10 10 10 11 11 11 11 11 11 11 10 10 10 9 9 9 9 9 8 7 7 6 6 6 5 5 4 4 4 4 4 4 3 3 3 3 3 3 3 3 2
10 10 10 10 10 11 11 11 10 10 9 10 10 9 9 9 8 8 8 8 8 7 6 6 5 5 5 4 4 4 4 4 4 4 4 4 3 3 3 2 2 2 2 1
10 10 10 10 9 10 10 10 9 9 9 9 9 9 8 8 8 7 7 7 7 6 6 5 5 4 4 3 3 4 4 4 3 3 3 3 3 3 3 2 2 2 1 1
10 10 9 9 9 10 10 9 8 9 9 9 9 8 7 7 7 6 6 7 6 5 5 5 4 3 3 2 2 2 2 3 3 3 2 2 2 2 2 2 1 1 1 1
9 9 9 9 9 9 9 9 8 8 8 8 8 7 7 6 6 6 6 5 5 5 5 4 3 3 2 2 2 2 2 3 3 3 2 2 2 2 2 2 2 1 1 1
9 9 9 9 9 9 9 8 8 8 7 7 7 7 6 6 5 5 6 5 5 4 3 3 3 2 2 1 2 2 2 2 2 2 2 2 2 2 2 2 2 2 1 0
8 8 8 8 8 8 8 8 7 7 6 6 6 6 6 6 5 5 5 5 4 3 3 3 2 2 1 1 2 2 2 2 3 3 3 3 3 2 2 2 1 1 1 -0
8 8 8 8 8 8 7 7 7 6 6 6 6 5 6 6 5 5 5 5 4 4 3 2 2 1 1 1 1 2 3 3 3 3 3 3 2 2 1 1 1 0 -0 -0
Height
3196 3199 3199 3199 3200 3200 3200 3202 3203 3204 3204 3204 3203 3203 3203 3203 3203 3203 3204 3206 3208 3211 3213 3213 3214 3216 3217 3218 3219 3221 3222 3224 3226 3228 3230 3231 3232 3233 3233 3234 3235 3235 3235 3235
3199 3199 3199 3200 3200 3199 3200 3201 3202 3202 3202 3203 3201 3200 3199 3200 3202 3203 3203 3204 3206 3209 3210 3212 3213 3214 3215 3217 3218 3219 3221 3222 3224 3226 3228 3229 3230 3230 3231 3232 3233 3233 3232 3232
3197 3199 3199 3199 3198 3198 3199 3200 3201 3202 3201 3200 3199 3195 3194 3196 3199 3201 3202 3203 3204 3205 3208 3210 3211 3213 3214 3214 3215 3216 3219 3220 3222 3224 3225 3226 3227 3227 3229 3230 3230 3231 3231 3231
3196 3198 3198 3198 3198 3198 3197 3198 3198 3199 3200 3200 3200 3197 3193 3193 3194 3194 3198 3200 3201 3203 3204 3206 3208 3210 3211 3213 3213 3214 3215 3217 3219 3220 3221 3223 3224 3226 3226 3227 3228 3228 3228 3228
3197 3197 3197 3197 3198 3197 3198 3197 3196 3197 3198 3199 3199 3201 3191 3192 3191 3192 3194 3194 3198 3201 3202 3203 3204 3207 3209 3210 3211 3211 3212 3213 3215 3216 3218 3219 3220 3222 3222 3223 3224 3224 3223 3222
3194 3195 3195 3196 3195 3196 3196 3196 3196 3197 3198 3198 3197 3200 3191 3190 3190 3191 3191 3191 3194 3197 3199 3200 3202 3204 3206 3207 3207 3208 3209 3209 3210 3211 3213 3213 3215 3216 3216 3218 3218 3218 3218 3216
3190 3192 3193 3194 3194 3194 3195 3196 3197 3198 3198 3194 3193 3196 3190 3190 3189 3188 3188 3188 3190 3193 3196 3199 3199 3200 3202 3204 3206 3207 3207 3207 3207 3207 3207 3208 3209 3210 3211 3212 3211 3212 3211 3210
3190 3190 3191 3191 3191 3191 3191 3195 3195 3193 3192 3190 3191 3190 3187 3188 3188 3187 3185 3185 3185 3187 3191 3194 3196 3197 3200 3202 3204 3205 3205 3204 3202 3201 3201 3202 3203 3203 3203 3204 3205 3205 3204 3201
3186 3186 3186 3187 3187 3189 3187 3189 3191 3190 3190 3191 3188 3185 3184 3185 3185 3184 3182 3180 3181 3182 3182 3185 3189 3192 3195 3197 3198 3198 3197 3197 3196 3194 3197 3197 3196 3195 3191 3195 3195 3195 3197 3193
3182 3183 3183 3184 3185 3185 3185 3186 3188 3188 3187 3185 3182 3182 3181 3181 3180 3180 3179 3178 3178 3179 3181 3182 3185 3189 3190 3191 3192 3189 3190 3193 3193 3192 3191 3184 3179 3185 3169 3174 3183 3188 3189 3187
3179 3180 3180 3179 3179 3181 3182 3182 3183 3183 3182 3177 3174 3175 3176 3177 3176 3176 3176 3176 3175 3175 3176 3178 3180 3183 3186 3186 3185 3172 3185 3183 3179 3178 3185 3183 3174 3174 3173 3178 3182 3185 3186 3186
3176 3175 3174 3173 3173 3174 3174 3176 3177 3178 3178 3175 3172 3172 3172 3172 3172 3172 3172 3172 3171 3171 3172 3173 3174 3177 3179 3180 3181 3182 3178 3177 3176 3174 3170 3168 3172 3178 3177 3176 3180 3182 3182 3180
3174 3173 3171 3169 3170 3168 3168 3168 3169 3170 3171 3170 3169 3167 3167 3167 3166 3166 3165 3166 3166 3166 3167 3169 3171 3171 3174 3174 3173 3174 3173 3172 3169 3172 3168 3168 3172 3170 3174 3176 3177 3177 3178 3172
3171 3169 3169 3167 3166 3164 3163 3163 3163 3165 3166 3165 3164 3163 3162 3161 3161 3161 3160 3161 3162 3162 3163 3165 3166 3167 3168 3169 3169 3170 3171 3171 3170 3170 3168 3171 3170 3169 3173 3173 3175 3174 3173 3170
3166 3164 3164 3162 3161 3160 3160 3160 3160 3161 3161 3161 3160 3159 3159 3157 3157 3156 3157 3160 3161 3161 3161 3162 3163 3164 3166 3168 3168 3168 3167 3166 3166 3166 3167 3168 3168 3169 3170 3168 3170 3172 3168 3169
3160 3159 3158 3158 3157 3157 3157 3157 3157 3158 3158 3158 3158 3158 3156 3154 3153 3154 3155 3158 3160 3162 3161 3161 3162 3162 3163 3164 3165 3165 3165 3164 3165 3166 3167 3167 3167 3167 3169 3169 3170 3169 3166 3165
3156 3155 3155 3155 3154 3155 3157 3155 3155 3155 3156 3156 3156 3155 3154 3152 3153 3154 3155 3157 3157 3161 3161 3162 3163 3163 3163 3163 3162 3162 3162 3163 3163 3163 3164 3164 3165 3165 3165 3164 3163 3162 3160 3159
3151 3151 3151 3152 3153 3155 3153 3153 3154 3154 3154 3154 3153 3153 3153 3153 3154 3154 3155 3156 3157 3159 3162 3161 3162 3163 3161 3161 3160 3160 3160 3160 3159 3159 3160 3160 3160 3160 3160 3158 3158 3156 3154 3153
3148 3148 3150 3150 3151 3151 3151 3151 3152 3152 3153 3152 3152 3153 3152 3153 3155 3156 3156 3157 3157 3157 3160 3157 3162 3162 3159 3159 3158 3157 3156 3156 3155 3155 3154 3154 3153 3153 3152 3151 3150 3148 3147 3145
3146 3146 3148 3147 3148 3148 3148 3148 3149 3150 3152 3152 3153 3153 3153 3153 3155 3155 3155 3156 3155 3153 3156 3155 3157 3158 3157 3157 3156 3155 3154 3153 3151 3150 3150 3149 3148 3147 3146 3145 3143 3141 3140 3141
3144 3145 3145 3145 3145 3145 3145 3145 3147 3151 3154 3150 3150 3150 3151 3151 3152 3152 3151 3152 3152 3152 3152 3153 3154 3155 3154 3154 3154 3152 3150 3149 3149 3148 3149 3148 3146 3145 3144 3141 3138 3136 3136 3136
3143 3144 3144 3144 3144 3145 3144 3144 3148 3148 3147 3147 3147 3148 3149 3148 3149 3149 3149 3150 3150 3150 3150 3151 3152 3153 3152 3151 3149 3147 3146 3145 3145 3145 3143 3142 3140 3138 3136 3134 3132 3131 3129 3128
3142 3143 3143 3144 3143 3143 3142 3143 3144 3145 3145 3146 3146 3146 3147 3147 3147 3146 3147 3147 3148 3149 3150 3149 3150 3150 3149 3148 3146 3145 3143 3142 3141 3140 3139 3137 3135 3134 3132 3130 3128 3127 3124 3122
3139 3140 3141 3142 3142 3141 3141 3142 3143 3144 3144 3145 3145 3145 3145 3145 3144 3144 3145 3146 3147 3147 3147 3148 3147 3148 3147 3145 3144 3142 3140 3138 3137 3135 3134 3132 3130 3129 3127 3126 3124 3122 3118 3117
3138 3138 3139 3140 3139 3140 3140 3140 3142 3142 3143 3143 3143 3142 3142 3141 3142 3142 3142 3142 3143 3143 3144 3144 3145 3144 3143 3141 3139 3137 3135 3133 3132 3131 3130 3128 3126 3125 3123 3121 3119 3117 3115 3112
3136 3137 3139 3138 3139 3139 3140 3140 3140 3141 3142 3142 3141 3140 3139 3138 3138 3138 3138 3138 3138 3139 3139 3140 3140 3139 3138 3135 3134 3132 3130 3129 3128 3127 3125 3123 3121 3120 3118 3116 3115 3113 3111 3109
Wind_Speed
3 6 6 8 11 6 14 12 11 8 12 10 12 13 13 7 5 9 11 16 18 18 15 15 16 12 13 14 15 15 17 15 14 10 12 15 15 16 20 20 17 15 14 12
5 3 3 5 3 5 7 11 11 9 14 13 13 16 16 13 4 4 7 10 13 17 21 19 16 17 15 13 13 16 17 21 19 16 15 16 16 15 17 18 15 13 12 13
4 7 4 4 6 9 7 12 15 14 16 17 19 20 11 17 16 15 12 11 12 15 19 18 17 14 13 15 15 17 19 22 22 20 21 19 18 17 16 15 14 14 16 15
4 2 4 7 8 5 7 6 9 14 12 8 12 9 20 10 11 17 20 19 12 14 17 18 17 14 10 6 12 16 20 24 24 23 24 22 19 16 16 15 16 17 18 18
4 5 4 7 8 8 3 9 6 8 9 12 12 9 8 21 14 14 14 21 16 14 16 17 15 10 7 10 12 14 17 23 26 28 26 25 22 20 20 20 21 20 20 20
15 15 14 5 11 9 7 5 3 5 8 6 9 8 12 9 11 9 9 10 20 19 16 15 13 13 11 10 12 14 15 19 25 28 29 27 26 26 25 23 24 25 24 23
18 18 16 13 13 9 9 6 2 1 2 5 6 6 14 18 17 15 11 9 17 25 22 18 16 15 13 10 8 11 12 16 19 25 28 29 30 30 29 29 29 30 27 27
10 11 16 21 22 19 16 14 11 8 6 7 6 7 10 16 13 17 21 14 15 25 27 23 20 20 17 15 17 17 15 17 21 25 30 31 33 33 33 32 31 32 31 22
8 11 14 10 13 19 16 17 16 11 7 6 10 17 20 17 19 17 15 13 15 28 36 34 30 26 23 25 25 27 24 23 22 25 28 34 36 37 38 31 31 30 22 24
15 20 19 18 12 12 12 15 11 12 6 9 10 8 16 15 16 14 15 11 9 18 28 30 30 29 27 29 32 35 36 30 27 30 28 11 29 35 28 16 15 15 16 19
18 20 23 23 18 18 19 16 18 15 10 15 14 11 11 11 14 14 14 13 8 8 15 23 25 26 25 28 35 35 35 33 25 15 26 20 17 9 13 9 13 18 20 21
10 10 19 23 25 26 27 22 21 17 10 12 12 13 11 12 13 12 14 17 17 9 9 14 19 20 19 19 21 27 30 33 40 32 22 24 8 13 11 15 20 25 27 23
8 8 10 15 15 17 22 24 26 25 22 15 14 16 16 19 18 19 15 16 13 10 11 13 17 20 16 19 19 21 19 15 14 19 11 9 9 12 15 18 19 19 22 21
15 17 17 19 17 14 12 22 23 21 13 16 15 18 19 16 17 19 14 14 11 11 12 11 8 7 4 7 9 9 10 11 13 11 7 4 7 10 15 16 17 15 14 12
17 22 22 22 21 20 18 15 15 14 16 14 17 16 16 16 16 15 11 10 11 12 10 9 9 5 6 9 9 12 12 10 5 3 6 8 10 12 14 10 14 14 10 14
16 16 18 22 19 13 11 11 9 9 11 11 11 12 13 15 13 11 10 9 7 6 7 7 8 8 8 9 8 8 5 3 2 3 2 1 4 7 10 13 15 17 19 20
17 16 14 13 15 9 6 9 10 10 10 10 9 11 11 6 9 10 7 4 3 2 1 0 3 5 5 4 3 1 1 1 1 3 6 7 9 12 15 18 21 22 24 26
15 12 13 9 10 5 7 7 8 9 10 8 7 5 5 9 10 7 4 6 6 3 6 9 11 10 7 4 4 4 4 6 8 10 12 14 16 19 20 21 22 23 23 24
14 13 10 5 10 9 6 10 11 7 3 1 1 2 5 12 7 2 7 8 9 19 22 20 19 9 9 8 7 7 10 14 17 19 20 20 20 21 21 21 23 24 24 24
11 9 9 7 4 5 10 12 14 10 2 4 5 7 6 6 4 6 10 14 18 7 13 11 8 8 11 10 10 14 18 20 19 19 20 20 19 19 19 19 20 21 21 20
8 8 9 12 5 6 8 10 16 6 4 5 6 7 7 6 9 8 8 7 6 9 9 11 9 10 12 13 14 14 12 10 10 11 13 13 15 16 17 18 18 18 19 20
9 6 6 5 4 4 3 4 13 9 8 4 4 4 9 10 7 8 7 7 8 9 11 13 11 12 11 14 16 13 12 12 11 12 14 16 18 19 20 19 19 20 21 22
7 10 6 5 3 3 3 4 7 10 6 5 4 5 7 6 7 10 9 8 12 15 14 12 12 11 12 17 16 13 13 13 13 15 17 17 18 19 19 19 19 21 22 23
10 8 7 6 3 3 5 7 5 6 5 6 8 9 9 6 7 8 5 7 13 12 10 14 14 13 16 19 16 15 15 16 16 17 17 17 17 17 17 18 20 20 19 17
6 4 5 5 5 3 4 6 5 5 6 4 7 10 9 7 8 8 9 8 9 11 14 16 15 17 18 20 16 18 18 17 15 15 16 16 15 15 15 16 16 17 14 15
3 2 3 2 2 3 3 4 4 3 3 6 11 14 11 6 9 11 12 11 12 15 16 17 17 17 18 18 18 18 16 14 14 14 14 14 14 15 15 15 15 16 18 18
Wind_Direction
207 154 90 82 184 316 225 241 238 248 246 252 263 260 270 275 257 252 224 208 209 200 177 191 197 201 198 194 200 207 216 217 221 215 216 216 219 225 226 228 234 241 261 257
220 132 136 139 206 294 228 252 245 278 271 255 274 288 274 264 212 191 204 210 209 204 214 212 209 211 217 224 226 228 223 224 224 225 221 220 221 222 227 234 244 258 253 255
176 140 311 316 319 282 264 260 261 277 287 278 283 306 280 269 248 224 209 193 206 198 211 222 226 225 225 231 241 235 235 230 225 226 226 225 222 219 226 236 242 252 259 265
246 191 83 5 3 341 285 314 271 273 275 268 292 296 309 304 309 265 241 216 209 201 203 208 220 228 233 247 248 245 235 229 230 226 229 229 232 228 230 235 245 248 255 263
208 207 290 343 1 355 316 349 277 275 268 266 279 294 292 306 309 295 271 249 221 216 203 192 192 199 225 231 251 250 242 235 231 232 235 234 233 234 237 236 243 252 259 264
245 242 267 264 308 314 315 318 330 278 273 268 259 237 295 321 317 325 297 253 214 211 204 201 197 206 221 230 236 245 245 242 238 236 237 238 237 239 241 247 249 252 260 258
253 253 253 257 266 266 273 268 300 270 225 269 259 205 270 293 291 311 312 265 214 211 213 216 214 216 217 233 253 252 254 253 248 244 242 241 240 241 245 247 249 254 262 260
256 254 253 252 251 258 247 257 245 250 239 276 268 241 279 309 295 306 300 287 216 202 207 211 215 216 223 238 252 253 253 249 243 242 245 246 246 245 247 249 252 254 259 258
255 243 236 249 265 240 236 226 242 247 256 270 256 258 272 280 284 294 308 297 239 214 210 215 220 222 226 238 240 246 241 244 243 245 248 253 251 249 241 247 251 255 263 270
255 261 252 271 264 267 241 254 234 233 247 252 248 246 264 286 291 286 307 297 275 244 228 230 234 237 237 242 246 240 244 245 244 245 244 324 257 251 232 280 309 291 317 306
254 253 260 270 265 257 253 255 245 248 234 266 274 271 279 269 271 282 294 282 268 267 252 247 247 244 251 258 258 249 254 242 240 337 326 322 8 310 329 307 291 282 281 283
243 250 258 263 269 269 269 247 249 242 250 238 266 274 277 291 292 296 294 279 266 262 258 260 257 254 256 261 271 269 307 286 289 310 330 334 8 307 298 280 280 277 278 284
255 248 265 271 268 263 256 254 248 255 251 253 266 279 285 291 293 287 276 261 241 255 255 248 250 252 258 264 273 280 275 277 288 295 285 293 292 287 281 276 275 280 274 273
272 268 256 259 268 273 242 242 239 237 239 263 266 284 296 289 281 273 244 224 219 223 234 245 250 234 241 252 268 293 293 283 279 274 284 251 247 253 258 267 270 274 274 285
260 263 263 262 253 251 248 237 236 242 250 259 276 289 289 280 272 264 226 195 202 202 205 221 215 234 250 256 271 270 271 284 283 295 243 256 259 265 272 297 301 289 290 293
257 267 263 252 234 217 219 217 226 241 257 267 274 286 304 306 289 207 198 190 190 206 217 209 227 259 267 273 276 285 272 218 208 156 169 251 274 289 291 291 287 287 289 286
264 263 261 234 226 220 237 224 232 245 256 265 273 287 282 271 176 172 181 200 232 259 134 197 271 269 268 266 264 193 153 195 241 299 309 307 299 295 293 291 292 293 292 293
260 260 235 242 225 230 249 252 243 244 255 265 284 267 172 167 163 152 154 141 117 49 334 328 309 292 276 256 260 265 285 309 319 318 312 306 300 294 292 292 294 293 293 292
247 236 229 214 221 245 253 249 227 219 254 189 152 243 191 157 154 46 179 194 250 289 291 288 274 231 249 252 260 283 292 301 301 302 300 299 296 295 295 295 295 298 302 304
234 237 239 236 223 232 265 252 221 210 176 224 242 270 257 218 273 256 247 263 267 273 260 243 209 224 245 247 271 280 285 287 287 288 292 297 300 304 305 304 308 308 307 305
213 256 258 253 243 267 246 231 216 211 232 280 277 235 232 236 259 248 244 244 241 241 254 276 265 233 250 275 290 295 291 286 288 291 290 292 296 294 295 298 300 300 302 300
218 215 232 218 212 246 237 207 206 234 244 256 289 221 229 241 241 228 246 255 250 248 266 273 244 249 281 305 315 322 316 307 301 295 298 299 299 302 303 304 306 307 305 302
211 224 229 216 211 245 278 222 208 218 256 276 257 213 204 230 234 253 275 224 232 243 258 257 264 276 283 297 308 319 304 302 295 296 293 294 295 293 295 298 300 300 299 302
223 233 229 217 230 239 195 198 200 223 225 202 220 248 273 251 232 266 251 218 228 244 231 246 262 263 281 292 299 308 305 294 293 293 296 298 299 298 297 299 306 307 309 307
225 217 228 261 280 216 183 164 168 183 192 217 284 304 310 240 233 249 274 274 245 232 238 250 259 268 277 285 296 305 302 296 292 295 294 294 297 300 305 310 312 313 317 315
132 126 9 281 286 186 178 182 202 228 226 260 283 300 309 258 250 262 267 265 246 240 238 243 254 267 280 288 295 297 294 292 292 292 293 299 305 309 310 308 308 315 312 302